This is the latest recevied weather packets stored in our database for station/object IW3HBX-3. If no packets are shown the sender has not sent any weather packets the latest 10 day(s).
| Time | Temp. | Humidity | Pressure | Rain* | Wind** | Luminosity | Snow |
|---|---|---|---|---|---|---|---|
| 1777620640 | 15.56° C | 34% | 1028.9 hPa | 0 mm | - | 428 W/m² | - |
| 1777620340 | 15.56° C | 33% | 1028.8 hPa | 0 mm | - | 412 W/m² | - |
| 1777620040 | 15.56° C | 34% | 1028.8 hPa | 0 mm | - | 395 W/m² | - |
| 1777619741 | 15.56° C | 34% | 1028.9 hPa | 0 mm | - | 381 W/m² | - |
| 1777619441 | 15° C | 34% | 1028.8 hPa | 0 mm | - | 367 W/m² | - |
| 1777619141 | 15° C | 34% | 1028.9 hPa | 0 mm | - | 352 W/m² | - |
| 1777618842 | 15° C | 36% | 1028.8 hPa | 0 mm | - | 336 W/m² | - |
| 1777618542 | 15° C | 37% | 1028.8 hPa | 0 mm | - | 320 W/m² | - |
| 1777618242 | 15.56° C | 36% | 1028.7 hPa | 0 mm | - | 304 W/m² | - |
| 1777617942 | 14.44° C | 40% | 1028.8 hPa | 0 mm | - | 289 W/m² | - |
| 1777617642 | 13.89° C | 40% | 1028.7 hPa | 0 mm | - | 272 W/m² | - |
| 1777617343 | 15° C | 40% | 1028.8 hPa | 0 mm | - | 255 W/m² | - |
| 1777617043 | 14.44° C | 44% | 1028.7 hPa | 0 mm | - | 239 W/m² | - |
| 1777616743 | 13.89° C | 45% | 1028.7 hPa | 0 mm | - | 223 W/m² | - |
| 1777616443 | 13.89° C | 45% | 1028.7 hPa | 0 mm | - | 210 W/m² | - |
| 1777616144 | 13.89° C | 46% | 1028.6 hPa | 0 mm | - | 195 W/m² | - |
| 1777615844 | 13.89° C | 46% | 1028.6 hPa | 0 mm | - | 178 W/m² | - |
| 1777615544 | 13.33° C | 46% | 1028.5 hPa | 0 mm | - | 162 W/m² | - |
| 1777615243 | 13.33° C | 47% | 1028.5 hPa | 0 mm | - | 150 W/m² | - |
| 1777614943 | 12.78° C | 47% | 1028.5 hPa | 0 mm | - | 142 W/m² | - |
| 1777614643 | 13.33° C | 47% | 1028.4 hPa | 0 mm | - | 129 W/m² | - |
| 1777614343 | 12.78° C | 46% | 1028.3 hPa | 0 mm | - | 116 W/m² | - |
| 1777614043 | 12.78° C | 47% | 1028.3 hPa | 0 mm | - | 108 W/m² | - |
| 1777613743 | 12.78° C | 48% | 1028.2 hPa | 0 mm | - | 98 W/m² | - |
| 1777613443 | 12.78° C | 47% | 1028.3 hPa | 0 mm | - | 89 W/m² | - |
* Rain latest hour (hover to see other rain measurements)
** Current wind speed in m/s (hover to see current wind gust speed)